Weather Roundup
Issued by NWS

Home | Current Version | Previous Version | Text Only | Print | Product List | Glossary On
Versions: 1 2 3 4 5 6 7 8 9 10 11 12 13 14 15 16 17 18 19 20 21 22 23 24 25 26 27 28 29 30 31 32 33 34 35 36 37 38 39 40 41 42 43 44 45 46 47 48 49 50
000
NZUS93 KARX 302210
HRRWXR

CURRENT HOURLY OBSERVATIONS ACROSS
MUCH OF THE UPPER MISSISSIPPI VALLEY
NATIONAL WEATHER SERVICE LA CROSSE WI
500 PM CDT SUN AUG 30 2015


...SOUTHEAST MINNESOTA...


CITY           SKY/WX    TMP DP  RH WIND       PRES   REMARKS
ROCHESTER      MOSUNNY   73  65  75 S13       30.00F
ROCHESTER/MAYO FAIR      73  64  72 S13       29.99F
WINONA         MOSUNNY   75  63  64 S7        29.99F
AUSTIN         NOT AVBL
ALBERT LEA     SUNNY     75  66  73 S9G16     29.99F
DODGE CENTER   SUNNY     73  64  73 S14       29.99F
PRESTON        MOSUNNY   72  63  74 S9        30.02F
OWATONNA       SUNNY     75  64  69 S14       29.97F
FARIBAULT      SUNNY     77  66  69 S9        29.96F
$$

...ELSEWHERE IN MINNESOTA...


CITY           SKY/WX    TMP DP  RH WIND       PRES   REMARKS
MINNEAPOLIS    MOSUNNY   80  64  58 S14       29.93F
INTNL FALLS    MOSUNNY   83  69  62 S6        29.79F
DULUTH         SUNNY     80  67  64 SW10      29.89S
RED WING       SUNNY     79  64  61 S8        29.95S
REDWOOD FALLS  SUNNY     81  65  58 S13       29.90S
MANKATO        SUNNY     75  66  73 S12G17    29.95S
WORTHINGTON    SUNNY     75  64  69 S14       29.95F
FAIRMONT       SUNNY     75  63  64 S16       29.96
$$

...SOUTHWEST WISCONSIN...


CITY           SKY/WX    TMP DP  RH WIND       PRES   REMARKS
LA CROSSE      PTSUNNY   76  64  66 S12       29.99F
PRAIRIE DU CHI MOSUNNY   74  62  64 S3        30.02S
BOSCOBEL       SUNNY     76  64  66 S7        30.02F
LONE ROCK      MOSUNNY   75  64  68 SW7       30.02F
PLATTEVILLE    SUNNY     73  67  79 SW6       30.03F
FORT MC COY    SUNNY     75  62  64 S6        30.02S
CAMP DOUGLAS   SUNNY     76  72  87 SW8       30.00F
VIROQUA          N/A     72  64  75 SW7       30.04S
WIS DELLS      SUNNY     75  62  64 SW7       30.02F
$$

...ELSEWHERE IN WISCONSIN...


CITY           SKY/WX    TMP DP  RH WIND       PRES   REMARKS
MILWAUKEE      PTSUNNY   70  62  76 SE8       30.02F
MADISON        PTSUNNY   74  62  66 SW5       30.02F
GREEN BAY      SUNNY     74  65  73 SW6       30.00F
EAU CLAIRE     SUNNY     76  63  64 S9        29.96F
BLACK RVR FLS  FAIR      75  62  64 SW6       29.99F
MEDFORD        SUNNY     74  65  73 S9        30.00S
WAUSAU         SUNNY     77  64  64 SW8       29.98F
WIS RAPIDS     SUNNY     75  62  64 S9        30.01F
MARSHFIELD     SUNNY     77  63  61 SW9       30.00F
RICE LAKE      SUNNY     75  64  66 S9G16     29.97S
$$

...NORTHEAST IOWA...


CITY           SKY/WX    TMP DP  RH WIND       PRES   REMARKS
DECORAH        CLOUDY    72  64  78 VRB7      30.02S
MASON CITY     PTSUNNY   73  66  78 S14       30.02F
CHARLES CITY   CLOUDY    72  66  83 S9        30.03S
OELWEIN        CLOUDY    72  64  78 SW8       30.04F
$$

...ELSEWHERE IN IOWA...


CITY           SKY/WX    TMP DP  RH WIND       PRES   REMARKS
DES MOINES     PTSUNNY   78  67  68 S6        30.01S
IOWA CITY      MOSUNNY   76  66  71 CALM      30.03F
FORT DODGE     CLOUDY    73  64  73 S9        30.01F
$$

...NORTHERN ILLINOIS...


CITY           SKY/WX    TMP DP  RH WIND       PRES   REMARKS
CHICAGO-OHARE  MOSUNNY   76  63  64 SW5       30.02F
CHICAGO-MIDWAY MOSUNNY   77  65  66 E5        30.02F
MOLINE         SUNNY     80  64  58 NW3       30.02F
ROCKFORD       MOSUNNY   74  63  68 SW6       30.04F
PEORIA         SUNNY     83  67  58 N5        30.01F
$$

NOTE: "FAIR" INDICATES FEW OR NO CLOUDS BELOW 12,000 FEET WITH NO
SIGNIFICANT WEATHER AND/OR OBSTRUCTIONS TO VISIBILITY. WIND
SPEEDS ARE IN MILES-PER-HOUR.



USA.gov is the U.S. government's official web portal to all federal, state and local government web resources and services.